Regional Weather Roundup
Issued by NWS Midland/Odessa, TX

Skip options and go directly to product.
Home | Oldest Version | Previous Version | Current Version | All | Text Only | Save Text | Print | Product List | Glossary Off

Skip product version selection by date and time.   

869
ASUS44 KMAF 300410
RWRMAF
MIDLAND AREA WEATHER ROUNDUP
NATIONAL WEATHER SERVICE MIDLAND TX
1100 PM CDT SUN MAR 29 2015

...IN SOUTHWEST TEXAS AND SOUTHEAST NEW MEXICO...

CITY           SKY/WX    TMP DP  RH WIND       PRES   REMARKS
ALPINE         PTCLDY    56  32  39 W8        30.24S
ANDREWS        FAIR      60  36  40 E8        30.18S
ARTESIA        PTCLDY    70  30  23 E14       30.16R
BIG SPRING     MOCLDY    67  35  30 NE20      30.16S
CARLSBAD       CLEAR     69  30  23 E6        30.14R
DRYDEN           N/A     71  54  54 NE3       30.05R
FORT STOCKTON  CLEAR     70  40  33 E20       30.14R
GUAD PASS      MOCLDY    65  27  23 NE33G41   30.25R
HOBBS          CLEAR     64  28  25 E14G21    30.19S
MARFA          PTCLDY    54  28  37 CALM      30.22S
MIDLAND AIRPK  MOCLDY    67  38  35 E8        30.17R
MIDLAND INTL   PTCLDY    68  39  34 E16       30.15R
ODESSA         PTCLDY    67  38  34 E14       30.16R
PECOS          CLEAR     70  38  31 NE10      30.11R
PRESIDIO       FAIR      73  23  15 MISG      30.06R
SEMINOLE       MOCLDY    58  32  36 CALM      30.20R
SNYDER         CLEAR     66  37  34 NE14      30.16R
WINK           CLEAR     70  34  26 E15       30.11R
$$
...OTHER STATIONS IN TEXAS...

CITY           SKY/WX    TMP DP  RH WIND       PRES   REMARKS
ABILENE        CLEAR     65  48  54 N7        30.14R
AMARILLO       PTCLDY    53  25  33 SE6       30.25R
AUSTIN         CLEAR     66  60  81 S9        30.11R
BROWNSVILLE    CLEAR     70  67  90 SE14      30.13R
CORPUS CHRISTI CLEAR     68  64  87 S14       30.11R
DALLAS FTW     PTCLDY    69  55  60 SE9       30.06R
DEL RIO        CLEAR     74  54  49 SE5       30.02R
EL PASO        CLOUDY    78  14   9 CALM      30.12R
HOUSTON INT    PTCLDY    69  63  81 S7        30.13S
LUBBOCK        FAIR      53  25  33 NE9       30.21R
SAN ANGELO     CLEAR     68  47  46 NE5       30.13R
SAN ANTONIO    CLEAR     69  62  78 SE10      30.11R
WACO           CLEAR     68  56  65 S15       30.08R
WICHITA FALLS  NOT AVBL
$$
...OTHER LOCATIONS IN NEW MEXICO...

CITY           SKY/WX    TMP DP  RH WIND       PRES   REMARKS
ALAMAGORDO     MOCLDY    70  14  11 SE5       30.15R
ALBUQUERQUE    CLOUDY    67  27  22 E26G38    30.19R
CANNON AFB     MOCLDY    52  28  40 E9        30.24F
CLOVIS         MOCLDY    52  27  37 NE12      30.25F
HOLLOMAN AFB   MOCLDY    73  14  10 NE1       30.13R
ROSWELL        PTCLDY    65  30  27 E5        30.17R
RUIDOSO        CLOUDY    57  27  30 SE18G24   30.36R
SANTA FE       MOCLDY    57  24  28 E14G21    30.29R
TRUTH OR CONSE MOCLDY    64  17  16 W6        30.16R
TUCUMCARI      MOCLDY    53  27  36 NE5       30.24R
$$

USA.gov is the U.S. government's official web portal to all federal, state and local government web resources and services.